This is the latest recevied weather packets stored in our database for station/object JA6CFI-13. If no packets are shown the sender has not sent any weather packets the latest 10 day(s).
| Time | Temp. | Humidity | Pressure | Rain* | Wind** | Luminosity | Snow |
|---|---|---|---|---|---|---|---|
| 1777480927 | 12.22° C | 91% | 1017.6 hPa | 1.27 mm | - | - | - |
| 1777480586 | 12.22° C | 91% | 1017.6 hPa | 1.27 mm | - | - | - |
| 1777479805 | 12.78° C | 91% | 1017.8 hPa | 1.02 mm | - | - | - |
| 1777479027 | 12.78° C | 91% | 1018 hPa | 0.76 mm | - | - | - |
| 1777478247 | 12.78° C | 91% | 1018 hPa | 0 mm | - | - | - |
| 1777477466 | 12.78° C | 92% | 1018.1 hPa | 0 mm | - | - | - |
| 1777477327 | 12.78° C | 92% | 1018.1 hPa | 0 mm | - | - | - |
| 1777476686 | 12.78° C | 91% | 1018 hPa | 0 mm | - | - | - |
| 1777475905 | 12.78° C | 91% | 1018 hPa | 0 mm | - | - | - |
| 1777475127 | 13.33° C | 92% | 1018.1 hPa | 0 mm | - | - | - |
| 1777474345 | 13.33° C | 91% | 1018.2 hPa | 0.76 mm | - | - | - |
| 1777473566 | 13.33° C | 91% | 1018.2 hPa | 0.51 mm | - | - | - |
| 1777472786 | 13.89° C | 91% | 1018.3 hPa | 0.76 mm | - | - | - |
| 1777472006 | 13.89° C | 91% | 1018.5 hPa | 0.51 mm | - | - | - |
| 1777471225 | 13.89° C | 90% | 1018.4 hPa | 0.51 mm | - | - | - |
| 1777470445 | 13.89° C | 90% | 1018.4 hPa | 0.51 mm | - | - | - |
| 1777469666 | 13.89° C | 88% | 1018.4 hPa | 0.51 mm | - | - | - |
| 1777468886 | 13.89° C | 87% | 1018.4 hPa | 0.25 mm | - | - | - |
| 1777468329 | 14.44° C | 86% | 1018.4 hPa | 0.25 mm | - | - | - |
| 1777468105 | 14.44° C | 86% | 1018.3 hPa | 0.25 mm | - | - | - |
| 1777467327 | 14.44° C | 84% | 1018.3 hPa | 0.25 mm | - | - | - |
| 1777466547 | 14.44° C | 83% | 1018.2 hPa | 0 mm | - | - | - |
| 1777465766 | 14.44° C | 83% | 1018.1 hPa | 0 mm | - | - | - |
| 1777464986 | 14.44° C | 83% | 1018.2 hPa | 0 mm | - | - | - |
| 1777464205 | 14.44° C | 82% | 1018.1 hPa | 0 mm | - | - | - |
* Rain latest hour (hover to see other rain measurements)
** Current wind speed in m/s (hover to see current wind gust speed)